Time,TemperatureF,DewpointF,PressureIn,WindDirection,WindDirectionDegrees,WindSpeedMPH,WindSpeedGustMPH,Humidity,HourlyPrecipIn,Conditions,Clouds,dailyrainin,SoftwareType,DateUTC
2013-09-23 00:03:00,68.4,32.2,29.82,NNE,22,1.3,1.3,26,0.00,,---,0.00,VWS V14.01,2013-09-23 07:03:00,
2013-09-23 00:08:00,68.4,32.2,29.79,North,0,2.5,2.5,26,0.00,,---,0.00,VWS V14.01,2013-09-23 07:08:00,
2013-09-23 00:13:00,68.2,32.0,29.79,North,0,2.0,2.0,26,0.00,,---,0.00,VWS V14.01,2013-09-23 07:13:00,
2013-09-23 00:19:00,68.2,32.0,29.79,NNW,338,2.2,2.7,26,0.00,,---,0.00,VWS V14.01,2013-09-23 07:19:00,
2013-09-23 00:24:00,67.8,32.7,29.82,NW,315,2.5,2.5,27,0.00,,---,0.00,VWS V14.01,2013-09-23 07:24:00,
2013-09-23 00:29:00,67.6,32.5,29.82,NNW,338,3.4,3.4,27,0.00,,---,0.00,VWS V14.01,2013-09-23 07:29:00,
2013-09-23 00:34:00,67.3,32.2,29.82,NNE,22,2.9,2.9,27,0.00,,---,0.00,VWS V14.01,2013-09-23 07:34:00,
2013-09-23 00:39:00,67.3,32.2,29.79,NNW,338,1.3,1.3,27,0.00,,---,0.00,VWS V14.01,2013-09-23 07:39:00,
2013-09-23 00:44:00,67.3,32.2,29.79,NNW,338,2.2,2.2,27,0.00,,---,0.00,VWS V14.01,2013-09-23 07:44:00,
2013-09-23 00:49:00,66.9,31.9,29.79,NNW,338,1.1,1.3,27,0.00,,---,0.00,VWS V14.01,2013-09-23 07:49:00,
2013-09-23 00:54:00,66.9,31.9,29.82,NNW,338,1.1,1.1,27,0.00,,---,0.00,VWS V14.01,2013-09-23 07:54:00,
2013-09-23 00:59:00,66.9,31.0,29.82,NNW,338,1.6,1.6,26,0.00,,---,0.00,VWS V14.01,2013-09-23 07:59:00,
2013-09-23 01:04:00,67.1,31.1,29.82,NNW,338,1.6,1.6,26,0.00,,---,0.00,VWS V14.01,2013-09-23 08:04:00,
2013-09-23 01:09:00,66.9,31.0,29.82,NNW,338,1.3,2.5,26,0.00,,---,0.00,VWS V14.01,2013-09-23 08:09:00,
2013-09-23 01:14:00,66.9,31.0,29.82,NNW,338,1.1,1.1,26,0.00,,---,0.00,VWS V14.01,2013-09-23 08:14:00,
2013-09-23 01:19:00,66.7,30.8,29.82,North,0,3.1,3.1,26,0.00,,---,0.00,VWS V14.01,2013-09-23 08:19:00,
2013-09-23 01:24:00,66.7,30.8,29.82,NE,45,0.0,0.0,26,0.00,,---,0.00,VWS V14.01,2013-09-23 08:24:00,
2013-09-23 01:29:00,66.7,30.8,29.82,NNW,338,0.0,1.6,26,0.00,,---,0.00,VWS V14.01,2013-09-23 08:29:00,
2013-09-23 01:34:00,66.7,30.8,29.82,NW,315,0.0,0.0,26,0.00,,---,0.00,VWS V14.01,2013-09-23 08:34:00,
2013-09-23 01:39:00,66.4,30.5,29.82,North,0,1.3,1.3,26,0.00,,---,0.00,VWS V14.01,2013-09-23 08:39:00,
2013-09-23 01:44:00,66.2,30.3,29.82,North,0,0.0,0.0,26,0.00,,---,0.00,VWS V14.01,2013-09-23 08:44:00,
2013-09-23 01:49:00,66.0,30.2,29.82,ESE,112,0.0,0.0,26,0.00,,---,0.00,VWS V14.01,2013-09-23 08:49:00,
2013-09-23 01:54:00,65.7,29.9,29.82,North,0,1.3,2.2,26,0.00,,---,0.00,VWS V14.01,2013-09-23 08:54:00,
2013-09-23 01:59:00,65.8,30.0,29.82,ENE,68,1.1,1.1,26,0.00,,---,0.00,VWS V14.01,2013-09-23 08:59:00,
2013-09-23 02:04:00,65.5,29.7,29.82,NNW,338,0.0,0.0,26,0.00,,---,0.00,VWS V14.01,2013-09-23 09:04:00,
2013-09-23 02:09:00,65.5,29.7,29.82,NNW,338,1.6,1.6,26,0.00,,---,0.00,VWS V14.01,2013-09-23 09:09:00,
2013-09-23 02:14:00,65.3,29.6,29.82,NNW,338,0.0,0.0,26,0.00,,---,0.00,VWS V14.01,2013-09-23 09:14:00,
2013-09-23 02:20:00,65.3,29.6,29.82,NNW,338,0.9,0.9,26,0.00,,---,0.00,VWS V14.01,2013-09-23 09:20:00,
2013-09-23 02:25:00,65.5,29.7,29.82,NNW,338,0.0,0.0,26,0.00,,---,0.00,VWS V14.01,2013-09-23 09:25:00,
2013-09-23 02:30:00,65.1,29.4,29.82,NNW,338,1.3,1.3,26,0.00,,---,0.00,VWS V14.01,2013-09-23 09:30:00,
2013-09-23 02:35:00,64.9,29.3,29.82,NE,45,1.3,1.3,26,0.00,,---,0.00,VWS V14.01,2013-09-23 09:35:00,
2013-09-23 02:40:00,64.8,29.1,29.82,NNW,338,1.1,1.1,26,0.00,,---,0.00,VWS V14.01,2013-09-23 09:40:00,
2013-09-23 02:45:00,64.8,29.1,29.82,NE,45,2.0,2.0,26,0.00,,---,0.00,VWS V14.01,2013-09-23 09:45:00,
2013-09-23 02:50:00,64.8,29.1,29.82,NNE,22,2.5,2.5,26,0.00,,---,0.00,VWS V14.01,2013-09-23 09:50:00,
2013-09-23 02:55:00,64.9,29.3,29.82,NE,45,1.3,1.3,26,0.00,,---,0.00,VWS V14.01,2013-09-23 09:55:00,
2013-09-23 03:00:00,64.6,29.0,29.82,NW,315,0.9,0.9,26,0.00,,---,0.00,VWS V14.01,2013-09-23 10:00:00,
2013-09-23 03:05:00,64.4,28.8,29.82,North,0,0.9,0.9,26,0.00,,---,0.00,VWS V14.01,2013-09-23 10:05:00,
2013-09-23 03:10:00,64.2,28.6,29.82,ENE,68,0.0,0.0,26,0.00,,---,0.00,VWS V14.01,2013-09-23 10:10:00,
2013-09-23 03:15:00,63.7,28.2,29.82,North,0,1.6,1.6,26,0.00,,---,0.00,VWS V14.01,2013-09-23 10:15:00,
2013-09-23 03:21:00,63.5,29.0,29.82,NNW,338,0.0,0.0,27,0.00,,---,0.00,VWS V14.01,2013-09-23 10:21:00,
2013-09-23 03:26:00,63.0,28.5,29.82,NNW,338,0.0,0.0,27,0.00,,---,0.00,VWS V14.01,2013-09-23 10:26:00,
2013-09-23 03:31:00,62.6,28.2,29.82,NNW,338,0.0,0.0,27,0.00,,---,0.00,VWS V14.01,2013-09-23 10:31:00,
2013-09-23 03:36:00,62.1,27.7,29.82,NNW,338,0.0,0.0,27,0.00,,---,0.00,VWS V14.01,2013-09-23 10:36:00,
2013-09-23 03:41:00,61.7,28.3,29.82,NNW,338,0.0,0.0,28,0.00,,---,0.00,VWS V14.01,2013-09-23 10:41:00,
2013-09-23 03:46:00,61.3,28.0,29.82,ENE,68,0.0,0.0,28,0.00,,---,0.00,VWS V14.01,2013-09-23 10:46:00,
2013-09-23 03:51:00,61.7,29.1,29.82,North,0,2.5,2.5,29,0.00,,---,0.00,VWS V14.01,2013-09-23 10:51:00,
2013-09-23 03:56:00,61.7,30.8,29.82,NNE,22,1.3,1.6,31,0.00,,---,0.00,VWS V14.01,2013-09-23 10:56:00,
2013-09-23 04:01:00,61.5,32.9,29.82,North,0,0.0,0.0,34,0.00,,---,0.00,VWS V14.01,2013-09-23 11:01:00,
2013-09-23 04:06:00,61.3,33.5,29.82,North,0,1.3,1.3,35,0.00,,---,0.00,VWS V14.01,2013-09-23 11:06:00,
2013-09-23 04:11:00,61.5,33.6,29.82,NNW,338,1.3,1.3,35,0.00,,---,0.00,VWS V14.01,2013-09-23 11:11:00,
2013-09-23 04:16:00,61.3,33.5,29.82,North,0,1.6,1.6,35,0.00,,---,0.00,VWS V14.01,2013-09-23 11:16:00,
2013-09-23 04:21:00,61.3,32.8,29.82,North,0,2.0,2.0,34,0.00,,---,0.00,VWS V14.01,2013-09-23 11:21:00,
2013-09-23 04:26:00,61.3,32.8,29.82,North,0,1.3,1.3,34,0.00,,---,0.00,VWS V14.01,2013-09-23 11:26:00,
2013-09-23 04:31:00,61.0,32.4,29.82,NNW,338,1.6,1.6,34,0.00,,---,0.00,VWS V14.01,2013-09-23 11:31:00,
2013-09-23 04:36:00,60.8,32.3,29.82,NNW,338,1.6,1.6,34,0.00,,---,0.00,VWS V14.01,2013-09-23 11:36:00,
2013-09-23 04:41:00,60.6,32.1,29.82,NNW,338,1.6,1.6,34,0.00,,---,0.00,VWS V14.01,2013-09-23 11:41:00,
2013-09-23 04:46:00,60.3,31.8,29.82,NNW,338,1.6,1.6,34,0.00,,---,0.00,VWS V14.01,2013-09-23 11:46:00,
2013-09-23 04:51:00,60.4,32.0,29.82,NNW,338,1.6,1.6,34,0.00,,---,0.00,VWS V14.01,2013-09-23 11:51:00,
2013-09-23 04:56:00,60.4,32.0,29.82,NNW,338,1.6,1.6,34,0.00,,---,0.00,VWS V14.01,2013-09-23 11:56:00,
2013-09-23 05:01:00,60.3,32.5,29.82,NNW,338,1.6,1.6,35,0.00,,---,0.00,VWS V14.01,2013-09-23 12:01:00,
2013-09-23 05:06:00,60.1,32.4,29.82,NNE,22,1.3,1.3,35,0.00,,---,0.00,VWS V14.01,2013-09-23 12:06:00,
2013-09-23 05:11:00,60.1,32.4,29.82,NNE,22,1.3,1.3,35,0.00,,---,0.00,VWS V14.01,2013-09-23 12:11:00,
2013-09-23 05:17:00,60.1,32.4,29.82,North,0,0.9,1.3,35,0.00,,---,0.00,VWS V14.01,2013-09-23 12:17:00,
2013-09-23 05:22:00,59.7,32.0,29.82,North,0,0.9,0.9,35,0.00,,---,0.00,VWS V14.01,2013-09-23 12:22:00,
2013-09-23 05:27:00,59.4,31.7,29.82,SSW,202,0.0,0.0,35,0.00,,---,0.00,VWS V14.01,2013-09-23 12:27:00,
2013-09-23 05:32:00,59.0,31.4,29.82,SSW,202,0.0,0.0,35,0.00,,---,0.00,VWS V14.01,2013-09-23 12:32:00,
2013-09-23 05:37:00,58.6,31.1,29.82,SSW,202,0.0,0.0,35,0.00,,---,0.00,VWS V14.01,2013-09-23 12:37:00,
2013-09-23 05:42:00,58.3,30.8,29.82,West,270,0.0,0.0,35,0.00,,---,0.00,VWS V14.01,2013-09-23 12:42:00,
2013-09-23 05:47:00,58.3,31.5,29.82,West,270,0.0,0.0,36,0.00,,---,0.00,VWS V14.01,2013-09-23 12:47:00,
2013-09-23 05:52:00,57.9,31.1,29.85,West,270,0.0,0.0,36,0.00,,---,0.00,VWS V14.01,2013-09-23 12:52:00,
2013-09-23 05:57:00,58.1,32.0,29.85,East,90,0.0,0.0,37,0.00,,---,0.00,VWS V14.01,2013-09-23 12:57:00,
2013-09-23 06:02:00,58.1,32.0,29.85,East,90,0.0,0.0,37,0.00,,---,0.00,VWS V14.01,2013-09-23 13:02:00,
2013-09-23 06:07:00,58.1,33.3,29.85,East,90,0.0,0.0,39,0.00,,---,0.00,VWS V14.01,2013-09-23 13:07:00,
2013-09-23 06:13:00,58.1,32.7,29.85,North,0,0.0,0.0,38,0.00,,---,0.00,VWS V14.01,2013-09-23 13:13:00,
2013-09-23 06:18:00,57.9,32.5,29.85,NNE,22,2.5,2.5,38,0.00,,---,0.00,VWS V14.01,2013-09-23 13:18:00,
2013-09-23 06:23:00,58.1,32.0,29.85,NNE,22,1.1,1.1,37,0.00,,---,0.00,VWS V14.01,2013-09-23 13:23:00,
2013-09-23 06:28:00,58.1,32.0,29.85,NNE,22,1.1,1.1,37,0.00,,---,0.00,VWS V14.01,2013-09-23 13:28:00,
2013-09-23 06:33:00,58.1,32.0,29.85,NNE,22,3.1,3.1,37,0.00,,---,0.00,VWS V14.01,2013-09-23 13:33:00,
2013-09-23 06:38:00,58.1,31.3,29.85,NNE,22,3.1,3.1,36,0.00,,---,0.00,VWS V14.01,2013-09-23 13:38:00,
2013-09-23 06:43:00,58.3,31.5,29.85,NNE,22,3.1,3.1,36,0.00,,---,0.00,VWS V14.01,2013-09-23 13:43:00,
2013-09-23 06:48:00,59.4,31.7,29.85,North,0,3.1,3.1,35,0.00,,---,0.00,VWS V14.01,2013-09-23 13:48:00,
2013-09-23 06:53:00,59.9,32.2,29.88,NNE,22,2.5,2.5,35,0.00,,---,0.00,VWS V14.01,2013-09-23 13:53:00,
2013-09-23 06:58:00,60.4,32.7,29.88,North,0,2.5,2.5,35,0.00,,---,0.00,VWS V14.01,2013-09-23 13:58:00,
2013-09-23 07:03:00,61.0,33.2,29.88,NNW,338,1.6,1.6,35,0.00,,---,0.00,VWS V14.01,2013-09-23 14:03:00,
2013-09-23 07:08:00,62.1,33.4,29.88,NNE,22,2.5,2.5,34,0.00,,---,0.00,VWS V14.01,2013-09-23 14:08:00,
2013-09-23 07:13:00,63.0,34.2,29.88,NNE,22,2.0,2.2,34,0.00,,---,0.00,VWS V14.01,2013-09-23 14:13:00,
2013-09-23 07:18:00,63.9,35.0,29.88,NNE,22,1.6,1.6,34,0.00,,---,0.00,VWS V14.01,2013-09-23 14:18:00,
2013-09-23 07:23:00,64.8,35.0,29.88,NE,45,0.0,0.0,33,0.00,,---,0.00,VWS V14.01,2013-09-23 14:23:00,
2013-09-23 07:28:00,65.3,35.5,29.88,East,90,2.9,2.9,33,0.00,,---,0.00,VWS V14.01,2013-09-23 14:28:00,
2013-09-23 07:33:00,66.0,36.1,29.88,NNE,22,1.3,1.3,33,0.00,,---,0.00,VWS V14.01,2013-09-23 14:33:00,
2013-09-23 07:38:00,66.7,36.8,29.88,NNE,22,1.3,1.3,33,0.00,,---,0.00,VWS V14.01,2013-09-23 14:38:00,
2013-09-23 07:43:00,68.0,37.1,29.88,SE,135,1.3,1.3,32,0.00,,---,0.00,VWS V14.01,2013-09-23 14:43:00,
2013-09-23 07:48:00,71.4,39.2,29.88,ESE,112,2.9,2.9,31,0.00,,---,0.00,VWS V14.01,2013-09-23 14:48:00,
2013-09-23 07:53:00,73.0,39.8,29.88,NNE,22,1.1,1.1,30,0.00,,---,0.00,VWS V14.01,2013-09-23 14:53:00,
2013-09-23 07:58:00,74.5,41.0,29.88,East,90,3.6,3.6,30,0.00,,---,0.00,VWS V14.01,2013-09-23 14:58:00,
2013-09-23 08:03:00,74.8,40.5,29.88,ENE,68,1.6,1.6,29,0.00,,---,0.00,VWS V14.01,2013-09-23 15:03:00,
2013-09-23 08:08:00,74.7,40.3,29.88,ENE,68,2.2,2.2,29,0.00,,---,0.00,VWS V14.01,2013-09-23 15:08:00,
2013-09-23 08:14:00,73.8,39.5,29.91,East,90,2.2,2.5,29,0.00,,---,0.00,VWS V14.01,2013-09-23 15:14:00,
2013-09-23 08:19:00,73.9,39.7,29.91,SSE,158,2.7,2.7,29,0.00,,---,0.00,VWS V14.01,2013-09-23 15:19:00,
2013-09-23 08:24:00,73.9,39.7,29.91,SSE,158,1.6,1.6,29,0.00,,---,0.00,VWS V14.01,2013-09-23 15:24:00,
2013-09-23 08:29:00,73.9,39.7,29.91,SSE,158,1.3,1.3,29,0.00,,---,0.00,VWS V14.01,2013-09-23 15:29:00,
2013-09-23 08:34:00,74.1,39.9,29.91,SE,135,2.7,2.7,29,0.00,,---,0.00,VWS V14.01,2013-09-23 15:34:00,
2013-09-23 08:39:00,74.5,40.2,29.91,SSE,158,1.3,2.9,29,0.00,,---,0.00,VWS V14.01,2013-09-23 15:39:00,
2013-09-23 08:44:00,74.8,40.5,29.91,SSW,202,1.3,1.3,29,0.00,,---,0.00,VWS V14.01,2013-09-23 15:44:00,
2013-09-23 08:49:00,75.0,40.6,29.91,SW,225,2.0,2.0,29,0.00,,---,0.00,VWS V14.01,2013-09-23 15:49:00,
2013-09-23 08:54:00,75.6,39.3,29.91,SW,225,0.0,0.0,27,0.00,,---,0.00,VWS V14.01,2013-09-23 15:54:00,
2013-09-23 08:59:00,75.9,39.6,29.91,South,180,2.9,2.9,27,0.00,,---,0.00,VWS V14.01,2013-09-23 15:59:00,
2013-09-23 09:04:00,76.6,40.2,29.91,SSW,202,1.3,2.0,27,0.00,,---,0.00,VWS V14.01,2013-09-23 16:04:00,
2013-09-23 09:10:00,77.2,40.7,29.91,WSW,248,1.6,1.6,27,0.00,,---,0.00,VWS V14.01,2013-09-23 16:10:00,
2013-09-23 09:15:00,77.5,40.0,29.91,SW,225,1.3,2.9,26,0.00,,---,0.00,VWS V14.01,2013-09-23 16:15:00,
2013-09-23 09:20:00,77.9,40.3,29.91,SW,225,0.0,1.3,26,0.00,,---,0.00,VWS V14.01,2013-09-23 16:20:00,
2013-09-23 09:25:00,78.3,39.6,29.91,South,180,2.7,2.7,25,0.00,,---,0.00,VWS V14.01,2013-09-23 16:25:00,
2013-09-23 09:30:00,79.0,39.2,29.91,SSE,158,1.1,2.5,24,0.00,,---,0.00,VWS V14.01,2013-09-23 16:30:00,
2013-09-23 09:35:00,79.5,40.7,29.91,SW,225,2.5,3.4,25,0.00,,---,0.00,VWS V14.01,2013-09-23 16:35:00,
2013-09-23 09:40:00,80.2,41.3,29.91,SSW,202,1.3,1.3,25,0.00,,---,0.00,VWS V14.01,2013-09-23 16:40:00,
2013-09-23 09:45:00,80.2,41.3,29.91,SSW,202,1.3,1.3,25,0.00,,---,0.00,VWS V14.01,2013-09-23 16:45:00,
2013-09-23 09:50:00,80.8,40.7,29.91,West,270,3.6,3.6,24,0.00,,---,0.00,VWS V14.01,2013-09-23 16:50:00,
2013-09-23 09:55:00,81.5,41.3,29.91,South,180,1.1,1.6,24,0.00,,---,0.00,VWS V14.01,2013-09-23 16:55:00,
2013-09-23 10:00:00,82.2,40.8,29.91,West,270,1.6,1.6,23,0.00,,---,0.00,VWS V14.01,2013-09-23 17:00:00,
2013-09-23 10:05:00,82.2,40.8,29.91,WSW,248,2.7,2.7,23,0.00,,---,0.00,VWS V14.01,2013-09-23 17:05:00,
2013-09-23 10:10:00,82.6,39.9,29.91,WSW,248,2.7,2.7,22,0.00,,---,0.00,VWS V14.01,2013-09-23 17:10:00,
2013-09-23 10:15:00,82.8,40.1,29.91,SSE,158,1.3,1.3,22,0.00,,---,0.00,VWS V14.01,2013-09-23 17:15:00,
2013-09-23 10:20:00,83.3,40.5,29.91,SSW,202,1.6,1.6,22,0.00,,---,0.00,VWS V14.01,2013-09-23 17:20:00,
2013-09-23 10:25:00,83.7,40.8,29.91,SSW,202,1.6,1.6,22,0.00,,---,0.00,VWS V14.01,2013-09-23 17:25:00,
2013-09-23 10:30:00,84.2,41.3,29.91,SE,135,1.6,1.6,22,0.00,,---,0.00,VWS V14.01,2013-09-23 17:30:00,
2013-09-23 10:35:00,84.2,41.3,29.91,SE,135,1.6,1.6,22,0.00,,---,0.00,VWS V14.01,2013-09-23 17:35:00,
2013-09-23 10:40:00,84.4,41.4,29.91,SE,135,1.6,1.6,22,0.00,,---,0.00,VWS V14.01,2013-09-23 17:40:00,
2013-09-23 10:45:00,84.0,41.1,29.91,SE,135,1.6,1.6,22,0.00,,---,0.00,VWS V14.01,2013-09-23 17:45:00,
2013-09-23 10:50:00,83.1,39.2,29.91,SE,135,1.6,1.6,21,0.00,,---,0.00,VWS V14.01,2013-09-23 17:50:00,
2013-09-23 10:55:00,83.8,41.0,29.91,SE,135,1.6,1.6,22,0.00,,---,0.00,VWS V14.01,2013-09-23 17:55:00,
2013-09-23 11:00:00,84.2,40.1,29.91,SE,135,1.6,1.6,21,0.00,,---,0.00,VWS V14.01,2013-09-23 18:00:00,
2013-09-23 11:06:00,84.6,41.6,29.91,SE,135,1.6,1.6,22,0.00,,---,0.00,VWS V14.01,2013-09-23 18:06:00,
2013-09-23 11:11:00,84.9,40.7,29.91,SE,135,1.6,1.6,21,0.00,,---,0.00,VWS V14.01,2013-09-23 18:11:00,
2013-09-23 11:16:00,84.2,40.1,29.91,SE,135,1.6,1.6,21,0.00,,---,0.00,VWS V14.01,2013-09-23 18:16:00,
2013-09-23 11:21:00,84.7,40.5,29.91,SE,135,1.6,1.6,21,0.00,,---,0.00,VWS V14.01,2013-09-23 18:21:00,
2013-09-23 11:26:00,85.1,40.8,29.91,SE,135,1.6,1.6,21,0.00,,---,0.00,VWS V14.01,2013-09-23 18:26:00,
2013-09-23 11:31:00,85.3,41.0,29.91,SE,135,1.6,1.6,21,0.00,,---,0.00,VWS V14.01,2013-09-23 18:31:00,
2013-09-23 11:36:00,85.5,41.1,29.91,SE,135,1.6,1.6,21,0.00,,---,0.00,VWS V14.01,2013-09-23 18:36:00,
2013-09-23 11:41:00,85.8,41.4,29.91,SE,135,1.6,1.6,21,0.00,,---,0.00,VWS V14.01,2013-09-23 18:41:00,
2013-09-23 11:46:00,86.0,41.6,29.91,SE,135,1.6,1.6,21,0.00,,---,0.00,VWS V14.01,2013-09-23 18:46:00,
2013-09-23 11:51:00,86.2,41.7,29.91,SE,135,1.6,1.6,21,0.00,,---,0.00,VWS V14.01,2013-09-23 18:51:00,
2013-09-23 11:56:00,86.0,41.6,29.88,SE,135,1.6,1.6,21,0.00,,---,0.00,VWS V14.01,2013-09-23 18:56:00,
2013-09-23 12:01:00,86.0,41.6,29.88,SE,135,1.6,1.6,21,0.00,,---,0.00,VWS V14.01,2013-09-23 19:01:00,
2013-09-23 12:06:00,86.4,41.9,29.91,SE,135,1.6,1.6,21,0.00,,---,0.00,VWS V14.01,2013-09-23 19:06:00,
2013-09-23 12:11:00,86.4,40.6,29.91,SE,135,1.6,1.6,20,0.00,,---,0.00,VWS V14.01,2013-09-23 19:11:00,
2013-09-23 12:16:00,85.8,41.4,29.91,SE,135,1.6,1.6,21,0.00,,---,0.00,VWS V14.01,2013-09-23 19:16:00,
2013-09-23 12:22:00,86.4,41.9,29.88,SE,135,1.6,1.6,21,0.00,,---,0.00,VWS V14.01,2013-09-23 19:22:00,
2013-09-23 12:27:00,86.7,42.2,29.88,SE,135,1.6,1.6,21,0.00,,---,0.00,VWS V14.01,2013-09-23 19:27:00,
2013-09-23 12:32:00,86.4,40.6,29.88,SE,135,1.6,1.6,20,0.00,,---,0.00,VWS V14.01,2013-09-23 19:32:00,
2013-09-23 12:37:00,86.5,40.8,29.88,SE,135,1.6,1.6,20,0.00,,---,0.00,VWS V14.01,2013-09-23 19:37:00,
2013-09-23 12:42:00,86.9,41.0,29.88,SE,135,1.6,1.6,20,0.00,,---,0.00,VWS V14.01,2013-09-23 19:42:00,
2013-09-23 12:47:00,87.1,41.2,29.88,SE,135,1.6,1.6,20,0.00,,---,0.00,VWS V14.01,2013-09-23 19:47:00,
2013-09-23 12:52:00,87.3,41.3,29.88,SE,135,1.6,1.6,20,0.00,,---,0.00,VWS V14.01,2013-09-23 19:52:00,
2013-09-23 12:57:00,87.6,41.6,29.88,SE,135,1.6,1.6,20,0.00,,---,0.00,VWS V14.01,2013-09-23 19:57:00,
2013-09-23 13:02:00,87.3,41.3,29.88,SE,135,1.6,1.6,20,0.00,,---,0.00,VWS V14.01,2013-09-23 20:02:00,
2013-09-23 13:07:00,87.6,41.6,29.88,SE,135,1.6,1.6,20,0.00,,---,0.00,VWS V14.01,2013-09-23 20:07:00,
2013-09-23 13:12:00,87.8,41.8,29.88,SE,135,1.6,1.6,20,0.00,,---,0.00,VWS V14.01,2013-09-23 20:12:00,
2013-09-23 13:17:00,87.8,41.8,29.88,SE,135,1.6,1.6,20,0.00,,---,0.00,VWS V14.01,2013-09-23 20:17:00,
2013-09-23 13:22:00,88.2,42.1,29.85,SE,135,1.6,1.6,20,0.00,,---,0.00,VWS V14.01,2013-09-23 20:22:00,
2013-09-23 13:27:00,88.7,42.5,29.85,SE,135,1.6,1.6,20,0.00,,---,0.00,VWS V14.01,2013-09-23 20:27:00,
2013-09-23 13:32:00,88.5,41.0,29.85,SE,135,1.6,1.6,19,0.00,,---,0.00,VWS V14.01,2013-09-23 20:32:00,
2013-09-23 13:37:00,88.5,41.0,29.85,SE,135,1.6,1.6,19,0.00,,---,0.00,VWS V14.01,2013-09-23 20:37:00,
2013-09-23 13:42:00,89.2,43.0,29.85,SE,135,1.6,1.6,20,0.00,,---,0.00,VWS V14.01,2013-09-23 20:42:00,
2013-09-23 13:47:00,89.6,41.9,29.85,SE,135,1.6,1.6,19,0.00,,---,0.00,VWS V14.01,2013-09-23 20:47:00,
2013-09-23 13:52:00,89.8,42.1,29.85,SE,135,1.6,1.6,19,0.00,,---,0.00,VWS V14.01,2013-09-23 20:52:00,
2013-09-23 13:57:00,89.6,41.9,29.85,SE,135,1.6,1.6,19,0.00,,---,0.00,VWS V14.01,2013-09-23 20:57:00,
2013-09-23 14:02:00,89.1,41.5,29.85,SE,135,1.6,1.6,19,0.00,,---,0.00,VWS V14.01,2013-09-23 21:02:00,
2013-09-23 14:07:00,89.2,41.6,29.85,SE,135,1.6,1.6,19,0.00,,---,0.00,VWS V14.01,2013-09-23 21:07:00,
2013-09-23 14:13:00,89.6,41.9,29.85,SE,135,1.6,1.6,19,0.00,,---,0.00,VWS V14.01,2013-09-23 21:13:00,
2013-09-23 14:18:00,90.0,42.2,29.85,SE,135,1.6,1.6,19,0.00,,---,0.00,VWS V14.01,2013-09-23 21:18:00,
2013-09-23 14:23:00,90.1,42.4,29.85,SE,135,1.6,1.6,19,0.00,,---,0.00,VWS V14.01,2013-09-23 21:23:00,
2013-09-23 14:28:00,90.5,42.7,29.85,SE,135,1.6,1.6,19,0.00,,---,0.00,VWS V14.01,2013-09-23 21:28:00,
2013-09-23 14:33:00,90.7,42.8,29.85,SE,135,1.6,1.6,19,0.00,,---,0.00,VWS V14.01,2013-09-23 21:33:00,
2013-09-23 14:38:00,90.9,43.0,29.85,SE,135,1.6,1.6,19,0.00,,---,0.00,VWS V14.01,2013-09-23 21:38:00,
2013-09-23 14:43:00,91.0,43.1,29.85,SE,135,1.6,1.6,19,0.00,,---,0.00,VWS V14.01,2013-09-23 21:43:00,
2013-09-23 14:48:00,89.6,40.5,29.85,SE,135,1.6,1.6,18,0.00,,---,0.00,VWS V14.01,2013-09-23 21:48:00,
2013-09-23 14:53:00,89.6,40.5,29.85,SE,135,1.6,1.6,18,0.00,,---,0.00,VWS V14.01,2013-09-23 21:53:00,
2013-09-23 14:58:00,90.0,40.8,29.85,SE,135,1.6,1.6,18,0.00,,---,0.00,VWS V14.01,2013-09-23 21:58:00,
2013-09-23 15:03:00,90.1,41.0,29.85,SE,135,1.6,1.6,18,0.00,,---,0.00,VWS V14.01,2013-09-23 22:03:00,
2013-09-23 15:08:00,90.3,41.1,29.85,SE,135,1.6,1.6,18,0.00,,---,0.00,VWS V14.01,2013-09-23 22:08:00,
2013-09-23 15:13:00,90.3,41.1,29.85,SE,135,1.6,1.6,18,0.00,,---,0.00,VWS V14.01,2013-09-23 22:13:00,
2013-09-23 15:18:00,90.7,41.4,29.85,SE,135,1.6,1.6,18,0.00,,---,0.00,VWS V14.01,2013-09-23 22:18:00,
2013-09-23 15:24:00,90.5,41.3,29.85,SE,135,1.6,1.6,18,0.00,,---,0.00,VWS V14.01,2013-09-23 22:24:00,
2013-09-23 15:29:00,90.7,41.4,29.85,SE,135,1.6,1.6,18,0.00,,---,0.00,VWS V14.01,2013-09-23 22:29:00,
2013-09-23 15:34:00,91.0,41.7,29.85,SE,135,1.6,1.6,18,0.00,,---,0.00,VWS V14.01,2013-09-23 22:34:00,
2013-09-23 15:39:00,91.2,41.8,29.85,SE,135,1.6,1.6,18,0.00,,---,0.00,VWS V14.01,2013-09-23 22:39:00,
2013-09-23 15:44:00,91.2,41.8,29.85,SE,135,1.6,1.6,18,0.00,,---,0.00,VWS V14.01,2013-09-23 22:44:00,
2013-09-23 15:49:00,91.4,42.0,29.85,SE,135,1.6,1.6,18,0.00,,---,0.00,VWS V14.01,2013-09-23 22:49:00,
2013-09-23 15:54:00,91.4,42.0,29.85,SE,135,1.6,1.6,18,0.00,,---,0.00,VWS V14.01,2013-09-23 22:54:00,
2013-09-23 15:59:00,91.4,42.0,29.85,SE,135,1.6,1.6,18,0.00,,---,0.00,VWS V14.01,2013-09-23 22:59:00,
2013-09-23 16:04:00,91.2,41.8,29.85,SE,135,1.6,1.6,18,0.00,,---,0.00,VWS V14.01,2013-09-23 23:04:00,
2013-09-23 16:09:00,91.4,42.0,29.85,SE,135,1.6,1.6,18,0.00,,---,0.00,VWS V14.01,2013-09-23 23:09:00,
2013-09-23 16:14:00,91.6,42.1,29.85,SE,135,1.6,1.6,18,0.00,,---,0.00,VWS V14.01,2013-09-23 23:14:00,
2013-09-23 16:19:00,91.4,42.0,29.85,SE,135,1.6,1.6,18,0.00,,---,0.00,VWS V14.01,2013-09-23 23:19:00,
2013-09-23 16:24:00,91.2,41.8,29.85,SE,135,1.6,1.6,18,0.00,,---,0.00,VWS V14.01,2013-09-23 23:24:00,
2013-09-23 16:29:00,91.2,41.8,29.85,SE,135,1.6,1.6,18,0.00,,---,0.00,VWS V14.01,2013-09-23 23:29:00,
2013-09-23 16:35:00,90.9,41.5,29.85,SE,135,1.6,1.6,18,0.00,,---,0.00,VWS V14.01,2013-09-23 23:35:00,
2013-09-23 16:40:00,90.7,41.4,29.85,SE,135,1.6,1.6,18,0.00,,---,0.00,VWS V14.01,2013-09-23 23:40:00,
2013-09-23 16:45:00,90.7,41.4,29.85,SE,135,1.6,1.6,18,0.00,,---,0.00,VWS V14.01,2013-09-23 23:45:00,
2013-09-23 16:50:00,90.7,41.4,29.85,SE,135,1.6,1.6,18,0.00,,---,0.00,VWS V14.01,2013-09-23 23:50:00,
2013-09-23 16:55:00,90.5,41.3,29.85,SE,135,1.6,1.6,18,0.00,,---,0.00,VWS V14.01,2013-09-23 23:55:00,
2013-09-23 17:00:00,90.1,41.0,29.85,SE,135,1.6,1.6,18,0.00,,---,0.00,VWS V14.01,2013-09-24 00:00:00,
2013-09-23 17:05:00,90.3,41.1,29.85,SE,135,1.6,1.6,18,0.00,,---,0.00,VWS V14.01,2013-09-24 00:05:00,
2013-09-23 17:10:00,90.0,40.8,29.85,SE,135,1.6,1.6,18,0.00,,---,0.00,VWS V14.01,2013-09-24 00:10:00,
2013-09-23 17:15:00,89.6,40.5,29.85,SE,135,1.6,1.6,18,0.00,,---,0.00,VWS V14.01,2013-09-24 00:15:00,
2013-09-23 17:21:00,89.2,40.2,29.85,SE,135,1.6,1.6,18,0.00,,---,0.00,VWS V14.01,2013-09-24 00:21:00,
2013-09-23 17:26:00,88.9,39.9,29.85,SE,135,1.6,1.6,18,0.00,,---,0.00,VWS V14.01,2013-09-24 00:26:00,
2013-09-23 17:31:00,88.3,39.5,29.85,SE,135,1.6,1.6,18,0.00,,---,0.00,VWS V14.01,2013-09-24 00:31:00,
2013-09-23 17:36:00,88.0,39.2,29.85,SE,135,1.6,1.6,18,0.00,,---,0.00,VWS V14.01,2013-09-24 00:36:00,
2013-09-23 17:41:00,87.3,40.0,29.88,SE,135,1.6,1.6,19,0.00,,---,0.00,VWS V14.01,2013-09-24 00:41:00,
2013-09-23 17:46:00,86.5,39.4,29.88,SE,135,1.6,1.6,19,0.00,,---,0.00,VWS V14.01,2013-09-24 00:46:00,
2013-09-23 17:51:00,85.8,38.8,29.88,SE,135,1.6,1.6,19,0.00,,---,0.00,VWS V14.01,2013-09-24 00:51:00,
2013-09-23 17:56:00,85.1,38.2,29.88,SE,135,1.6,1.6,19,0.00,,---,0.00,VWS V14.01,2013-09-24 00:56:00,
2013-09-23 18:01:00,84.4,37.7,29.88,SE,135,1.6,1.6,19,0.00,,---,0.00,VWS V14.01,2013-09-24 01:01:00,
2013-09-23 18:06:00,83.8,37.2,29.88,SE,135,1.6,1.6,19,0.00,,---,0.00,VWS V14.01,2013-09-24 01:06:00,
2013-09-23 18:11:00,83.1,36.6,29.88,SE,135,1.6,1.6,19,0.00,,---,0.00,VWS V14.01,2013-09-24 01:11:00,
2013-09-23 18:16:00,82.6,36.2,29.88,SE,135,1.6,1.6,19,0.00,,---,0.00,VWS V14.01,2013-09-24 01:16:00,
2013-09-23 18:21:00,81.9,36.9,29.88,SE,135,1.6,1.6,20,0.00,,---,0.00,VWS V14.01,2013-09-24 01:21:00,
2013-09-23 18:26:00,81.1,36.3,29.88,SE,135,1.6,1.6,20,0.00,,---,0.00,VWS V14.01,2013-09-24 01:26:00,
2013-09-23 18:32:00,80.6,35.9,29.88,SE,135,1.6,1.6,20,0.00,,---,0.00,VWS V14.01,2013-09-24 01:32:00,
2013-09-23 18:37:00,80.2,35.6,29.88,SE,135,1.6,1.6,20,0.00,,---,0.00,VWS V14.01,2013-09-24 01:37:00,
2013-09-23 18:42:00,79.9,35.3,29.88,SE,135,1.6,1.6,20,0.00,,---,0.00,VWS V14.01,2013-09-24 01:42:00,
2013-09-23 18:47:00,79.5,35.0,29.88,SE,135,1.6,1.6,20,0.00,,---,0.00,VWS V14.01,2013-09-24 01:47:00,
2013-09-23 18:52:00,79.2,34.7,29.88,SE,135,1.6,1.6,20,0.00,,---,0.00,VWS V14.01,2013-09-24 01:52:00,
2013-09-23 18:57:00,79.0,34.5,29.88,SE,135,1.6,1.6,20,0.00,,---,0.00,VWS V14.01,2013-09-24 01:57:00,
2013-09-23 19:02:00,78.8,34.4,29.88,SE,135,1.6,1.6,20,0.00,,---,0.00,VWS V14.01,2013-09-24 02:02:00,
2013-09-23 19:07:00,79.0,34.5,29.88,WNW,292,2.0,2.0,20,0.00,,---,0.00,VWS V14.01,2013-09-24 02:07:00,
2013-09-23 19:12:00,79.2,34.7,29.88,WNW,292,2.0,2.0,20,0.00,,---,0.00,VWS V14.01,2013-09-24 02:12:00,
2013-09-23 19:17:00,79.2,34.7,29.88,WNW,292,2.0,2.0,20,0.00,,---,0.00,VWS V14.01,2013-09-24 02:17:00,
2013-09-23 19:22:00,79.0,34.5,29.88,NW,315,2.9,2.9,20,0.00,,---,0.00,VWS V14.01,2013-09-24 02:22:00,
2013-09-23 19:27:00,78.4,34.1,29.88,NW,315,2.9,2.9,20,0.00,,---,0.00,VWS V14.01,2013-09-24 02:27:00,
2013-09-23 19:32:00,77.5,33.3,29.88,NW,315,2.9,2.9,20,0.00,,---,0.00,VWS V14.01,2013-09-24 02:32:00,
2013-09-23 19:37:00,77.4,33.2,29.91,NW,315,2.9,2.9,20,0.00,,---,0.00,VWS V14.01,2013-09-24 02:37:00,
2013-09-23 19:42:00,77.0,32.9,29.91,NW,315,2.9,2.9,20,0.00,,---,0.00,VWS V14.01,2013-09-24 02:42:00,
2013-09-23 19:47:00,76.8,34.0,29.91,NW,315,2.9,2.9,21,0.00,,---,0.00,VWS V14.01,2013-09-24 02:47:00,
2013-09-23 19:52:00,76.6,33.8,29.91,NW,315,2.9,2.9,21,0.00,,---,0.00,VWS V14.01,2013-09-24 02:52:00,
2013-09-23 19:57:00,76.5,33.7,29.91,NW,315,2.9,2.9,21,0.00,,---,0.00,VWS V14.01,2013-09-24 02:57:00,
2013-09-23 20:02:00,76.6,33.8,29.91,NW,315,2.9,2.9,21,0.00,,---,0.00,VWS V14.01,2013-09-24 03:02:00,
2013-09-23 20:07:00,76.6,33.8,29.91,NW,315,2.9,2.9,21,0.00,,---,0.00,VWS V14.01,2013-09-24 03:07:00,
2013-09-23 20:13:00,76.6,33.8,29.91,NW,315,2.9,2.9,21,0.00,,---,0.00,VWS V14.01,2013-09-24 03:13:00,
2013-09-23 20:18:00,76.8,32.8,29.91,NW,315,2.9,2.9,20,0.00,,---,0.00,VWS V14.01,2013-09-24 03:18:00,
2013-09-23 20:23:00,76.8,32.8,29.91,NW,315,2.9,2.9,20,0.00,,---,0.00,VWS V14.01,2013-09-24 03:23:00,
2013-09-23 20:28:00,76.6,32.6,29.91,NW,315,2.9,2.9,20,0.00,,---,0.00,VWS V14.01,2013-09-24 03:28:00,
2013-09-23 20:33:00,76.3,33.5,29.91,NW,315,2.9,2.9,21,0.00,,---,0.00,VWS V14.01,2013-09-24 03:33:00,
2013-09-23 20:38:00,75.7,33.1,29.91,NW,315,2.9,2.9,21,0.00,,---,0.00,VWS V14.01,2013-09-24 03:38:00,
2013-09-23 20:43:00,75.4,31.6,29.91,NW,315,2.9,2.9,20,0.00,,---,0.00,VWS V14.01,2013-09-24 03:43:00,
2013-09-23 20:48:00,75.2,32.6,29.91,NW,315,2.9,2.9,21,0.00,,---,0.00,VWS V14.01,2013-09-24 03:48:00,
2013-09-23 20:53:00,75.2,32.6,29.91,NW,315,2.9,2.9,21,0.00,,---,0.00,VWS V14.01,2013-09-24 03:53:00,
2013-09-23 20:58:00,75.2,32.6,29.91,NW,315,2.9,2.9,21,0.00,,---,0.00,VWS V14.01,2013-09-24 03:58:00,
2013-09-23 21:01:00,75.2,32.6,29.91,NW,315,2.9,2.9,21,0.00,,---,0.00,VWS V14.01,2013-09-24 04:01:00,
2013-09-23 21:02:00,75.4,32.8,29.91,NW,315,2.9,2.9,21,0.00,,---,0.00,VWS V14.01,2013-09-24 04:02:00,
2013-09-23 21:07:00,75.4,32.8,29.91,NW,315,2.9,2.9,21,0.00,,---,0.00,VWS V14.01,2013-09-24 04:07:00,
2013-09-23 21:12:00,75.4,32.8,29.91,NW,315,2.9,2.9,21,0.00,,---,0.00,VWS V14.01,2013-09-24 04:12:00,
2013-09-23 21:17:00,75.4,32.8,29.91,NW,315,2.9,2.9,21,0.00,,---,0.00,VWS V14.01,2013-09-24 04:17:00,
2013-09-23 21:22:00,75.0,32.5,29.91,NW,315,2.9,2.9,21,0.00,,---,0.00,VWS V14.01,2013-09-24 04:22:00,
2013-09-23 21:27:00,74.8,32.3,29.91,NW,315,2.9,2.9,21,0.00,,---,0.00,VWS V14.01,2013-09-24 04:27:00,
2013-09-23 21:32:00,74.5,32.0,29.91,NW,315,2.9,2.9,21,0.00,,---,0.00,VWS V14.01,2013-09-24 04:32:00,
2013-09-23 21:37:00,74.3,31.9,29.91,NW,315,2.9,2.9,21,0.00,,---,0.00,VWS V14.01,2013-09-24 04:37:00,
2013-09-23 21:42:00,74.1,31.7,29.91,NE,45,2.7,2.7,21,0.00,,---,0.00,VWS V14.01,2013-09-24 04:42:00,
2013-09-23 21:47:00,73.9,31.6,29.91,NE,45,2.7,2.7,21,0.00,,---,0.00,VWS V14.01,2013-09-24 04:47:00,
2013-09-23 21:52:00,73.9,31.6,29.94,NE,45,2.7,2.7,21,0.00,,---,0.00,VWS V14.01,2013-09-24 04:52:00,
2013-09-23 21:58:00,73.6,31.3,29.94,NE,45,2.7,2.7,21,0.00,,---,0.00,VWS V14.01,2013-09-24 04:58:00,
2013-09-23 22:03:00,73.6,31.3,29.94,NE,45,2.7,2.7,21,0.00,,---,0.00,VWS V14.01,2013-09-24 05:03:00,
2013-09-23 22:08:00,73.6,31.3,29.91,North,0,2.7,2.7,21,0.00,,---,0.00,VWS V14.01,2013-09-24 05:08:00,
2013-09-23 22:13:00,73.8,31.4,29.91,North,0,2.7,2.7,21,0.00,,---,0.00,VWS V14.01,2013-09-24 05:13:00,
2013-09-23 22:18:00,73.4,31.1,29.91,North,0,2.7,2.7,21,0.00,,---,0.00,VWS V14.01,2013-09-24 05:18:00,
2013-09-23 22:23:00,73.2,32.1,29.91,North,0,2.7,2.7,22,0.00,,---,0.00,VWS V14.01,2013-09-24 05:23:00,
2013-09-23 22:28:00,73.0,32.0,29.91,North,0,2.7,2.7,22,0.00,,---,0.00,VWS V14.01,2013-09-24 05:28:00,
2013-09-23 22:33:00,72.7,31.7,29.91,North,0,2.7,2.7,22,0.00,,---,0.00,VWS V14.01,2013-09-24 05:33:00,
2013-09-23 22:39:00,72.3,31.4,29.94,North,0,2.7,2.7,22,0.00,,---,0.00,VWS V14.01,2013-09-24 05:39:00,
2013-09-23 22:44:00,72.1,31.2,29.94,North,0,2.7,2.7,22,0.00,,---,0.00,VWS V14.01,2013-09-24 05:44:00,
2013-09-23 22:49:00,72.3,31.4,29.94,North,0,2.7,2.7,22,0.00,,---,0.00,VWS V14.01,2013-09-24 05:49:00,
2013-09-23 22:54:00,71.8,30.9,29.94,North,0,2.7,2.7,22,0.00,,---,0.00,VWS V14.01,2013-09-24 05:54:00,
2013-09-23 22:59:00,71.2,30.5,29.94,North,0,2.7,2.7,22,0.00,,---,0.00,VWS V14.01,2013-09-24 05:59:00,
2013-09-23 23:04:00,71.1,30.3,29.94,North,0,2.7,2.7,22,0.00,,---,0.00,VWS V14.01,2013-09-24 06:04:00,
2013-09-23 23:09:00,70.7,30.0,29.94,North,0,2.7,2.7,22,0.00,,---,0.00,VWS V14.01,2013-09-24 06:09:00,
2013-09-23 23:14:00,70.5,29.9,29.94,North,0,2.7,2.7,22,0.00,,---,0.00,VWS V14.01,2013-09-24 06:14:00,
2013-09-23 23:19:00,70.5,29.9,29.94,North,0,2.7,2.7,22,0.00,,---,0.00,VWS V14.01,2013-09-24 06:19:00,
2013-09-23 23:24:00,70.3,29.7,29.94,North,0,2.7,2.7,22,0.00,,---,0.00,VWS V14.01,2013-09-24 06:24:00,
2013-09-23 23:29:00,70.2,29.6,29.94,North,0,2.7,2.7,22,0.00,,---,0.00,VWS V14.01,2013-09-24 06:29:00,
2013-09-23 23:34:00,70.2,29.6,29.94,North,0,2.7,2.7,22,0.00,,---,0.00,VWS V14.01,2013-09-24 06:34:00,
2013-09-23 23:39:00,70.2,29.6,29.91,North,0,2.7,2.7,22,0.00,,---,0.00,VWS V14.01,2013-09-24 06:39:00,
2013-09-23 23:45:00,70.3,29.7,29.91,North,0,2.7,2.7,22,0.00,,---,0.00,VWS V14.01,2013-09-24 06:45:00,
2013-09-23 23:50:00,70.3,29.7,29.91,North,0,2.7,2.7,22,0.00,,---,0.00,VWS V14.01,2013-09-24 06:50:00,
2013-09-23 23:55:00,70.3,29.7,29.94,North,0,2.7,2.7,22,0.00,,---,0.00,VWS V14.01,2013-09-24 06:55:00,